#timestamp,LO_Frequency,Hit,StdDev 
1593669615.7,286046987.2,N
1593669635.6,286046992.5,N
1593669655.4,286046992.9,N
1593669675.2,286046984.3,N
1593669695.1,286046982.0,N
1593669696.0,286046982.0,N
1593669715.8,286046976.2,N
1593669735.7,286046972.6,N
1593669755.5,286046972.0,N
1593669775.3,286046966.4,N
1593669795.2,286046965.4,N
1593669815.0,286046975.0,N
1593669815.9,286046975.0,N
1593669835.7,286046985.2,N
1593669855.6,286046982.4,N
1593669875.4,286046983.3,N
1593669895.3,286046980.7,N
1593669915.1,286046978.8,N
1593669935.9,286046976.2,N
1593669955.7,286046972.7,N
1593669975.5,286046973.6,N
1593669995.4,286046971.9,N
1593670015.2,286046970.9,N
1593670035.0,286046967.9,N
1593670035.9,286046967.9,Y
1593670055.8,286046983.0,P
1593670075.6,286046978.6,P
1593670095.5,286046976.5,P
1593670115.3,286046976.2,Y
1593670135.1,286047001.1,P
1593670155.9,286047006.2,N
1593670175.7,286047010.8,N
1593670195.5,286047012.6,N
1593670215.4,286047009.0,N
1593670235.2,286047003.9,N
1593670255.1,286047006.9,N
1593670256.0,286047006.9,N
1593670275.8,286047006.6,N
1593670295.6,286047003.4,N
1593670315.5,286047004.4,N
1593670335.3,286046999.5,N
1593670355.1,286047002.3,N
1593670375.9,286047004.0,N
1593670395.7,286046999.1,N
1593670415.6,286046996.1,N
1593670435.1,286046992.0,N
1593670455.9,286046997.1,N
1593670475.7,286046992.2,N
1593670495.5,286046991.3,N
1593670515.4,286046988.5,N
1593670535.2,286046994.9,N
1593670555.0,286046997.9,N
1593670555.9,286046997.9,N
1593670575.8,286046997.2,N
1593670595.6,286046996.1,N
1593670615.5,286046996.5,N
1593670635.3,286047001.2,N
1593670655.1,286046995.3,N
1593670675.9,286046993.5,N
1593670695.7,286046989.6,N
1593670715.6,286046990.4,N
1593670735.4,286046993.0,N
1593670755.2,286046987.5,N
1593670775.1,286046987.1,N
1593670776.0,286046987.1,N
1593670795.8,286046994.4,N
1593670815.6,286046997.5,N
1593670835.5,286046991.7,N
1593670855.3,286046988.7,N
1593670875.2,286046985.8,N
1593670895.9,286046983.6,Y
1593670915.7,286046982.5,P
1593670935.6,286046980.3,P
1593670955.4,286046979.2,P
1593670975.3,286046986.3,N
1593670995.1,286046984.3,N
1593670996.0,286046984.3,Y
1593671015.8,286047000.1,P
1593671035.7,286046998.7,N
1593671055.5,286046993.5,N
1593671075.4,286046990.4,N
1593671095.2,286046985.8,N
1593671115.0,286046985.8,N
1593671115.9,286046985.8,N
1593671135.8,286046985.1,N
1593671155.6,286046985.7,N
1593671175.4,286046982.2,Y
1593671195.3,286046995.5,P
1593671215.1,286046998.9,N
1593671235.9,286047002.4,N
1593671255.7,286046999.7,N
1593671275.5,286046997.4,N
1593671295.4,286047001.0,N
1593671315.2,286046996.3,N
1593671335.0,286046989.1,N
1593671335.9,286046989.1,N
1593671355.8,286046991.5,N
1593671375.6,286046993.1,N
1593671395.5,286046988.0,N
1593671415.3,286046982.9,Y
1593671435.1,286046986.3,P
1593671455.9,286046982.7,P
1593671475.7,286046981.7,P
1593671495.5,286046979.2,Y
1593671515.4,286046991.7,P
1593671535.2,286046991.3,P
1593671555.1,286046986.9,P
1593671556.0,286046986.9,Y
1593671575.8,286046986.3,P
1593671595.6,286046997.8,N
1593671615.5,286046997.2,N
1593671635.3,286046997.2,N
1593671655.2,286046998.9,N
1593671675.9,286046999.6,N
1593671695.7,286046995.3,N
1593671715.6,286046996.2,N
1593671735.4,286046990.7,N
1593671755.2,286046987.0,Y
1593671775.1,286046991.3,P
1593671776.0,286046991.3,P
1593671795.8,286046995.2,N
1593671815.7,286046998.5,N
1593671835.5,286046996.9,N
1593671855.3,286046997.4,N
1593671875.2,286046998.6,N
1593671895.0,286046997.8,N
1593671895.9,286046997.8,N
1593671915.7,286046994.2,N
1593671935.6,286046989.1,Y
1593671955.4,286046990.1,P
1593671975.3,286046988.5,P
1593671995.1,286046987.5,P
1593671996.0,286046987.5,Y
1593672015.8,286046997.6,P
1593672035.7,286046997.8,N
1593672055.5,286046999.4,N
1593672075.4,286046996.7,N
1593672095.2,286046996.1,N
1593672115.0,286046997.7,N
1593672115.9,286046997.7,N
1593672135.8,286046995.1,N
1593672155.6,286046991.7,Y
1593672175.4,286046994.4,P
1593672195.3,286046990.2,P
1593672215.1,286046991.7,P
1593672235.9,286046995.4,N
1593672255.7,286046992.9,Y
1593672275.5,286046998.2,P
1593672295.4,286046999.3,N
1593672315.2,286046997.1,N
1593672335.0,286046995.5,N
1593672336.0,286046995.5,N
1593672355.8,286046998.0,N
1593672375.6,286046999.3,N
1593672395.5,286047001.7,N
1593672415.3,286047001.2,N
1593672435.1,286046997.1,N
1593672455.9,286046994.2,N
1593672475.7,286046992.3,Y
1593672495.6,286046994.3,P
1593672515.4,286046992.3,P
1593672535.2,286046991.5,P
1593672555.1,286046989.7,Y
1593672556.0,286046989.7,P
1593672575.8,286046994.3,N
1593672595.7,286046994.7,N
1593672615.5,286046990.3,Y
1593672635.3,286046998.7,P
1593672655.2,286046996.7,N
1593672675.0,286046995.7,N
1593672675.9,286046995.7,N
1593672695.7,286046997.2,N
1593672715.6,286046999.2,N
1593672735.4,286046999.6,N
1593672755.3,286046995.2,N
1593672775.1,286046991.8,Y
1593672776.0,286046991.8,P
1593672795.8,286046995.0,N
1593672815.7,286046995.0,N
1593672835.5,286046997.1,N
1593672855.3,286046996.5,N
1593672875.2,286046995.4,N
1593672895.0,286046992.1,Y
1593672895.9,286046992.1,P
1593672915.8,286046996.9,N
1593672935.6,286046998.0,N
1593672955.4,286046996.0,N
1593672975.3,286046996.1,N
1593672995.1,286046997.3,N
1593673015.9,286046994.9,N
1593673035.7,286046997.8,N
1593673055.5,286046996.6,N
1593673075.4,286046997.0,N
1593673095.2,286046996.8,N
1593673115.0,286046997.7,N
1593673115.9,286046997.7,N
1593673135.8,286046994.1,Y
1593673155.6,286046997.2,P
1593673175.5,286046993.4,P
1593673195.3,286046992.3,P
